Regional Weather Roundup
Issued by NWS Sterling, VA

Home | Current Version | Previous Version | Text Only | Print | Product List | Glossary Off
Versions: 1 2 3 4 5 6 7 8 9 10 11 12 13 14 15 16 17 18 19 20 21 22 23 24 25 26 27 28 29 30 31 32 33 34 35 36 37 38 39 40 41 42 43 44 45 46 47 48 49 50

000
ASUS41 KLWX 211511
RWRLWX

REGIONAL WEATHER ROUNDUP
NATIONAL WEATHER SERVICE BALTIMORE MD/WASHINGTON DC
1100 AM EDT SAT APR 21 2018

Note: "FAIR" indicates few or no clouds below 12,000 feet
with no significant weather and/or obstructions to visibility.
 TC=TEMPERATURE CELSIUS

 * =Non NWS site. Station does not report precipitation (e.g. rain,
    snow, etc.), thunder, or fog.

DCZ001-MDZ009-015-VAZ040>042-051-053>054-211600-
WASHINGTON METRO

CITY           SKY/WX    TMP DP  RH WIND       PRES   REMARKS
WASHINGTON NAT PTSUNNY   52  28  39 E6        30.49F
DULLES         PTSUNNY   51  28  41 NW5       30.49F
ANDREWS AFB    FAIR      51  26  38 CALM      30.48F
FT BELVOIR     FAIR      53  25  34 CALM      30.49F
QUANTICO       FAIR      51  31  46 SE5       30.51F
COLLEGE PARK*  FAIR      51  27  39 CALM      30.48F
LEESBURG*      FAIR      52  32  46 W7        30.49F
MANASSAS*      FAIR      50  28  42 SE6       30.50F
GAITHERSBURG*  FAIR      51  27  39 NW8       30.48F

$$

MDZ006>007-011-014-211600-
BALTIMORE METRO

CITY           SKY/WX    TMP DP  RH WIND       PRES   REMARKS
BWI AIRPORT    PTSUNNY   52  28  39 MISG      30.48F
MD SCIENCE CTR   N/A     54  26  34 MISG      30.49F
MARTIN STATE   PTSUNNY   52  28  40 W6        30.50F
ANNAPOLIS      FAIR      52  30  43 N6        30.48F
FORT MEADE*    FAIR      52  28  40 CALM      30.50F

$$

MDZ012-015-019>023-211600-
MARYLAND EASTERN SHORE

CITY           SKY/WX    TMP DP  RH WIND       PRES   REMARKS
OCEAN CITY     FAIR      50  30  46 VRB6      30.47F
SALISBURY      FAIR      51  27  39 N6        30.47F
BAY BRIDGE AP* FAIR      50  30  46 NE6       30.49F
CAMBRIDGE*     SUNNY     50  28  43 N8        30.49F
EASTON*        MOSUNNY   52  27  37 N7        30.52S

$$

MDZ017>025-211600-
SOUTHERN MARYLAND

CITY           SKY/WX    TMP DP  RH WIND       PRES   REMARKS
PATUXENT RIVER FAIR      53  28  38 VRB6      30.49F
ST INIGOES     FAIR      51  27  39 N7        30.49S
LEONARDTOWN*   FAIR      50  28  43 CALM      30.50F

$$

MDZ003>005-211600-
NORTH CENTRAL MARYLAND

CITY           SKY/WX    TMP DP  RH WIND       PRES   REMARKS
FREDERICK*     SUNNY     50  25  37 W7        30.51F
HAGERSTOWN APT FAIR      49  28  44 CALM      30.47F
WESTMINSTER*   FAIR      46  28  49 W5        30.47S

$$

MDZ501>502-211600-
WESTERN MARYLAND

CITY           SKY/WX    TMP DP  RH WIND       PRES   REMARKS
OAKLAND*       FAIR      43  18  36 CALM      30.39F
CUMBERLAND*    FAIR      54  28  37 CALM      30.50F

$$

VAZ025>031-211600-
SHENANDOAH VALLEY

CITY           SKY/WX    TMP DP  RH WIND       PRES   REMARKS
WINCHESTER*    FAIR      46  30  53 S6        30.48F
FRONT ROYAL*   FAIR      50  28  43 CALM      30.45F
LURAY*         FAIR      52  27  37 CALM      30.45F
NEW MARKET*    FAIR      50  28  42 CALM      30.45F
STAUNTON*      FAIR      48  26  41 CALM      30.46F
WAYNESBORO*    FAIR      50  28  42 CALM      30.45F

$$

WVZ021-048>050-054>055-211600-
EASTERN WEST VIRGINIA PANHANDLE

CITY           SKY/WX    TMP DP  RH WIND       PRES   REMARKS
MARTINSBURG    FAIR      49  26  41 CALM      30.46F
PETERSBURG*    FAIR      49  27  42 CALM      30.45F

$$

VAZ036>039-050-211600-
CENTRAL FOOTHILLS

CITY           SKY/WX    TMP DP  RH WIND       PRES   REMARKS
CHARLOTTESVILL FAIR      53  28  38 CALM      30.47F
CULPEPER*      FAIR      51  26  36 S5        30.50F
ORANGE*        FAIR      50  30  46 CALM      30.48F
GORDONSVILLE*  FAIR      51  28  41 CALM      30.47F
WARRENTON*     FAIR      52  25  34 CALM      30.49F

$$

VAZ055>057-211600-
NORTH AND CENTRAL PIEDMONT

CITY           SKY/WX    TMP DP  RH WIND       PRES   REMARKS
FREDERICKSBRG* FAIR      52  31  44 NW7       30.49F
STAFFORD*      FAIR      53  29  40 CALM      30.53F

$$

NCZ024-NYZ072-PAZ021-071-VAZ022-071-211600-
OTHER REGIONAL OBSERVATIONS

CITY           SKY/WX    TMP DP  RH WIND       PRES   REMARKS
NEW YORK CITY  FAIR      52  23  32 NW8       30.43S
PHILADELPHIA   PTSUNNY   52  24  33 N9        30.46F
PITTSBURGH     PTSUNNY   46  27  47 VRB3      30.46S
ROANOKE        FAIR      53  26  35 S6        30.47F
RICHMOND       FAIR      54  30  40 CALM      30.49S
RALEIGH        FAIR      60  34  37 VRB6      30.46R

$$

ANZ530>537-211600-
MARINE OBSERVATIONS

STATION/POSITION TIME  TEMP    WIND        PRES
                       AIR SEA DIR/SP/G
                 (UTC) (F)     (DEG/KT/KT) (MB)
THOMAS PT LIGHT  1500   47 50   80/  3/  4 1033.4F
BALT KEY BRIDGE  1442   47     350/  5/  5 1032.6F
COVE POINT       1442   46      20/  5/  7 1033.5R
LEWISETTA        1442   47 53   60/  2/  4 1032.8S
SOLOMONS ISLAND  1442   46 52  120/  4/  6 1032.5S
PINEY POINT      1436          180/  5/  5   N/A

$$




USA.gov is the U.S. government's official web portal to all federal, state and local government web resources and services.